Theta_e
317 317 318 317 317 317 318 317 317 316 318 318 318 319 322 322 322 323 322 321 321 321 320 321 320 321 321 321 322 323 324 324 325 325 326 327 330 331 330 329 330 331 333 334 335 333 331 331 334 335 333 334 332 329 334 336 337 337 337 336 337 336 335 335 330 329 335 338 335 335 340 342 341 344 344 346 349 347 339 348 349 350 348 347 345
317 317 317 317 317 317 318 317 317 317 318 318 319 322 321 321 322 322 321 319 320 319 319 319 320 320 319 320 321 322 322 322 323 324 324 325 325 327 328 329 330 332 332 332 335 334 331 329 330 333 334 332 333 335 334 337 335 336 336 333 335 334 335 333 331 329 330 340 338 339 341 343 339 342 342 345 347 347 343 346 349 349 346 348 347
316 317 316 316 316 317 317 317 317 317 317 318 319 321 322 321 321 319 319 319 319 319 318 319 318 318 318 319 319 320 321 321 322 323 323 323 324 326 327 327 327 327 328 331 330 333 332 331 332 336 336 333 334 336 336 334 333 335 336 338 336 336 338 337 334 330 329 333 338 336 337 339 338 337 342 345 348 348 343 344 345 346 347 349 347
316 316 316 316 316 317 318 317 317 317 317 317 319 320 321 320 319 318 318 318 318 319 319 318 317 318 317 317 318 318 319 320 320 320 321 322 323 324 325 326 328 330 330 326 328 331 330 328 329 334 335 333 334 336 337 336 337 336 337 338 338 337 338 339 337 334 332 330 336 335 337 335 337 337 342 343 344 342 343 343 346 345 346 345 346
316 315 316 316 316 316 317 316 316 316 316 317 318 320 319 318 319 317 317 316 317 318 318 318 318 317 316 315 316 317 318 319 319 320 321 323 323 323 324 325 327 329 330 328 330 332 331 330 331 332 333 332 330 332 329 334 335 335 333 335 337 336 333 334 338 338 334 331 332 336 337 336 338 339 341 339 340 340 340 339 342 344 346 347 348
316 315 315 315 315 315 316 316 315 316 315 316 317 319 319 319 318 317 316 315 316 317 317 317 316 315 315 315 316 316 318 319 319 319 320 322 323 323 324 325 325 328 328 327 328 332 332 332 331 332 331 331 331 329 332 333 334 334 333 334 334 331 330 335 335 335 334 333 332 332 336 335 335 334 336 338 337 338 334 338 343 343 344 345 344
316 315 315 315 314 315 315 315 315 315 315 316 318 318 319 318 317 316 316 315 315 314 315 314 315 314 314 315 315 316 316 316 316 316 317 318 321 322 323 324 324 326 328 329 330 330 332 332 332 331 329 329 329 329 331 332 332 333 335 333 333 333 333 334 335 334 333 333 334 333 333 334 334 332 338 339 339 339 337 333 334 339 340 341 339
315 314 314 314 314 314 315 315 315 314 315 317 317 318 318 317 316 316 316 316 315 315 314 313 314 314 315 314 313 315 316 315 313 312 314 316 318 320 322 322 323 324 326 327 329 329 329 329 329 329 329 330 331 330 329 329 330 330 335 335 333 333 332 332 331 331 332 331 332 330 332 332 333 335 334 334 336 336 337 336 330 331 331 335 338
314 314 314 314 314 315 315 315 316 315 315 316 317 319 317 317 316 316 316 316 316 316 315 314 313 313 314 314 312 313 315 313 311 309 310 313 316 318 321 322 323 323 324 325 326 328 328 329 329 330 330 330 329 330 331 329 329 330 334 334 333 332 327 330 331 329 330 328 328 330 331 330 331 331 332 332 332 331 335 336 334 334 332 331 341
314 313 312 313 314 313 313 314 314 315 315 315 316 316 316 316 316 315 315 315 317 316 315 314 314 313 313 313 313 314 314 312 306 299 299 306 311 316 320 322 322 322 322 323 325 326 327 330 329 328 328 328 328 323 319 322 326 330 334 331 330 328 327 327 328 328 329 326 325 326 329 329 331 330 330 332 336 337 334 334 332 334 337 336 334
314 312 312 313 313 313 312 312 313 313 314 315 315 315 315 316 315 315 315 315 316 315 315 314 314 313 313 313 314 314 314 311 297 294 294 295 305 315 318 321 321 322 322 323 324 325 327 326 330 329 328 327 328 316 314 312 312 316 319 322 327 330 327 326 326 326 325 325 325 325 326 326 330 333 332 330 333 330 334 333 333 331 332 327 329
313 312 312 312 312 311 311 312 312 312 313 313 314 314 315 315 314 313 314 314 315 316 315 315 314 314 314 314 315 314 314 300 294 294 294 294 297 309 318 320 321 322 322 322 323 324 326 326 327 327 327 328 330 332 322 313 308 310 308 308 310 308 308 323 326 327 327 326 326 328 329 329 329 331 332 331 331 333 333 334 330 333 330 330 327
313 312 312 311 311 312 311 311 311 311 312 312 312 313 313 312 312 312 312 313 314 314 315 315 314 315 315 313 314 314 314 298 294 294 294 293 293 302 317 320 320 322 322 322 323 324 324 325 325 326 327 322 326 329 331 326 310 306 306 306 306 305 301 302 305 324 330 328 325 325 326 329 329 327 328 329 330 326 330 331 331 330 331 330 329
312 311 311 311 311 311 311 310 310 311 312 312 312 311 311 311 312 313 312 312 312 312 315 314 315 314 315 314 314 314 314 300 294 294 294 293 293 297 319 320 320 320 321 322 322 323 324 324 324 324 325 326 326 327 328 329 325 323 324 326 325 318 310 307 306 304 315 328 327 326 326 327 325 325 323 323 328 325 328 328 328 328 327 327 330
312 311 310 310 311 311 310 310 310 310 310 310 312 311 310 311 311 312 311 311 311 311 313 314 314 315 315 315 315 314 315 294 294 293 293 293 293 298 321 319 320 321 321 322 322 323 322 323 324 324 324 324 321 316 324 328 328 327 326 324 322 319 315 313 314 318 326 327 329 325 321 321 321 321 322 325 325 326 328 328 328 328 329 330 331
310 311 310 310 310 311 310 310 310 310 309 310 310 310 310 310 310 311 311 311 312 312 314 315 314 313 314 314 314 313 314 292 294 293 293 293 292 314 319 319 319 319 320 320 321 322 321 322 323 323 324 324 309 296 305 323 328 324 321 318 316 314 309 303 297 301 309 313 314 311 308 305 303 307 308 317 326 327 327 327 328 328 327 325 325
310 311 310 310 310 310 310 309 310 310 309 309 309 309 309 309 310 311 310 311 311 312 313 313 314 314 314 314 313 313 314 300 293 293 293 292 301 318 319 318 318 318 318 319 319 318 318 319 321 322 323 322 302 292 295 314 325 322 319 316 314 313 311 310 301 297 297 296 296 296 296 297 298 298 298 298 306 318 326 326 323 325 323 321 320
310 310 310 310 310 310 310 309 309 309 309 308 308 309 310 311 311 312 310 310 310 312 313 313 314 315 314 314 313 310 313 302 293 293 293 293 299 316 316 316 317 317 317 319 319 318 314 309 312 317 319 315 295 292 297 317 323 320 316 314 312 311 311 313 314 311 300 300 299 298 298 299 300 301 299 300 302 312 323 321 322 322 320 319 318
309 310 310 310 310 309 310 310 309 309 308 309 309 309 309 310 311 312 311 310 311 313 313 312 313 314 315 314 308 312 313 308 294 293 293 294 302 317 315 315 315 316 316 316 318 318 316 310 303 301 304 301 291 293 295 313 324 320 317 316 313 312 313 315 314 313 313 313 313 314 311 310 313 312 310 303 304 310 315 316 319 321 320 320 319
310 311 311 311 311 310 310 310 310 310 309 309 310 310 311 310 312 312 312 311 311 312 313 313 312 313 314 314 313 312 311 313 304 293 293 294 295 315 317 315 313 313 313 313 316 316 315 315 307 293 292 292 293 293 296 298 320 322 320 317 315 312 314 314 314 313 312 311 311 312 312 313 313 314 313 313 312 310 309 312 312 315 320 319 316
311 311 311 311 310 310 310 309 310 310 310 309 309 310 312 312 312 311 310 310 311 311 313 314 313 313 313 313 312 311 312 312 309 291 293 294 294 300 318 315 314 312 311 310 312 313 314 313 311 296 292 292 293 294 296 297 306 323 322 320 318 314 311 312 311 312 312 311 311 311 311 310 311 311 311 310 309 309 308 308 309 310 313 314 310
311 311 310 310 310 310 310 310 311 310 310 309 309 308 309 308 309 311 309 310 311 312 314 313 311 311 311 311 311 310 309 304 312 297 292 294 293 294 313 315 313 314 312 312 312 312 311 309 308 297 291 292 293 295 296 299 302 318 313 300 299 300 316 314 313 312 310 310 309 308 309 308 307 308 308 307 307 308 308 307 306 306 306 307 307
310 310 310 309 310 310 311 311 310 310 310 310 308 307 307 306 306 307 308 310 310 312 312 312 311 310 309 309 310 311 310 307 297 305 294 292 293 294 293 305 299 315 313 312 312 311 311 308 304 295 292 292 292 293 295 298 305 306 294 296 298 299 308 315 314 312 309 308 307 306 306 306 306 306 307 306 307 307 306 307 307 306 304 304 304
309 309 309 309 309 310 310 310 311 310 310 309 307 307 306 305 303 303 306 307 309 311 310 309 309 309 308 307 309 308 308 308 301 296 300 292 293 293 293 293 295 311 313 312 311 311 309 307 301 292 292 293 293 293 293 297 302 294 295 295 297 303 316 314 313 311 308 305 304 304 304 305 306 305 305 307 307 307 307 306 305 304 303 303 303
309 308 309 309 310 310 310 310 310 310 309 308 307 306 305 304 303 305 306 308 310 309 309 309 308 308 307 307 308 307 308 309 308 299 293 294 292 292 292 292 292 295 309 307 307 304 295 291 292 293 293 294 294 296 296 295 293 294 295 299 314 315 314 312 310 309 306 304 303 304 304 304 304 305 307 308 308 309 308 307 306 304 303 303 304
309 308 309 309 309 310 309 309 309 309 308 308 307 306 304 304 307 309 309 310 310 309 308 307 307 307 306 307 307 306 307 310 310 310 306 303 298 292 292 294 296 295 299 298 292 291 291 292 292 294 296 299 305 304 304 304 295 296 298 303 310 309 308 306 305 303 302 302 303 303 304 305 306 307 308 309 308 306 305 304 303 303 303 301 300
308 308 308 309 309 309 308 307 308 308 308 307 307 306 302 305 310 308 309 308 309 308 308 307 307 306 307 307 307 306 308 309 309 310 310 307 305 304 303 301 296 296 302 303 300 302 300 300 299 294 295 294 296 297 300 299 305 308 308 307 307 307 307 306 304 304 303 302 302 303 304 306 307 307 305 304 303 303 304 302 301 301 302 302 301
309 309 309 309 309 309 308 302 303 305 306 307 306 305 304 305 309 308 308 308 308 307 307 305 305 307 306 308 308 307 307 308 309 310 309 308 307 307 309 309 309 307 305 305 304 303 303 296 298 305 304 305 304 306 306 307 304 302 303 302 301 301 303 304 304 304 304 303 302 303 301 302 300 299 300 300 300 301 303 302 301 300 301 302 300
309 310 310 309 308 308 308 308 307 304 306 307 307 306 303 303 308 310 313 311 306 309 309 308 307 309 307 307 307 308 308 308 309 294 303 292 300 310 311 310 308 305 304 296 304 303 302 301 300 299 298 297 298 301 302 303 302 302 303 303 303 303 303 301 302 301 302 300 299 299 299 299 299 300 300 300 301 301 303 302 303 302 301 300 298
310 309 309 309 309 308 308 307 307 305 305 306 307 307 291 289 298 307 310 293 285 284 287 303 304 307 308 309 306 307 307 306 291 290 292 293 292 291 293 294 296 300 298 292 302 301 300 299 298 298 298 298 298 298 298 299 300 300 300 296 299 300 300 300 300 301 302 300 301 300 300 301 301 300 299 299 299 299 301 298 301 301 299 298 297
309 309 309 309 307 309 308 307 308 306 306 306 306 305 306 300 285 284 290 290 287 286 285 285 287 288 300 309 301 287 289 290 291 291 291 291 292 293 294 293 293 293 293 304 301 300 299 298 298 298 298 299 298 298 298 298 297 298 299 299 300 300 299 301 301 301 301 301 302 302 301 301 301 300 299 299 300 300 300 300 300 300 299 298 298
309 309 309 309 308 307 308 308 308 306 305 306 306 304 303 304 302 291 287 289 288 285 285 286 286 288 286 291 303 305 293 289 290 291 291 291 292 291 292 292 292 293 293 291 299 299 300 299 299 299 299 299 299 300 299 300 300 300 301 301 300 301 301 301 301 303 302 302 301 300 301 300 300 300 299 299 300 299 299 299 299 299 298 298 298
310 310 311 310 309 307 305 307 307 307 306 306 306 305 303 302 301 302 296 287 284 288 288 287 286 288 289 290 287 291 296 294 291 291 291 291 291 291 291 291 292 291 291 300 303 302 302 302 301 301 302 300 301 301 301 302 301 301 301 300 300 301 302 301 304 302 301 301 301 300 301 299 300 299 299 296 298 298 298 298 298 298 299 298 298
312 311 311 310 310 309 308 308 307 306 305 306 306 305 304 304 301 302 301 301 298 294 290 288 289 290 290 286 290 291 291 291 291 291 291 291 291 291 293 298 292 291 294 304 303 303 302 302 301 302 301 301 300 299 301 301 301 300 301 301 302 302 303 303 302 300 300 301 301 302 302 302 301 299 300 299 300 300 298 295 299 299 298 297 297
312 303 297 302 311 310 309 308 308 307 306 306 305 304 304 301 300 300 301 299 300 301 304 302 293 290 297 294 291 289 291 291 291 292 291 291 291 291 293 302 300 301 302 305 304 302 301 301 301 301 302 301 302 302 301 302 302 302 301 301 302 302 302 303 303 303 302 302 301 300 300 301 301 299 296 299 298 298 298 299 299 298 298 299 299
312 312 312 308 309 310 310 309 308 307 306 305 307 305 299 300 301 299 297 295 302 304 305 306 305 294 288 290 289 290 290 290 291 291 291 291 291 292 301 302 302 302 301 302 303 302 302 303 303 303 303 302 303 302 303 303 302 303 302 302 303 302 302 301 300 301 302 302 300 299 300 301 301 299 301 300 300 299 299 299 298 298 299 298 299
313 312 312 311 310 310 310 310 309 308 300 302 304 306 306 305 304 301 300 301 301 303 306 307 306 302 296 299 294 290 288 291 291 291 291 291 290 297 303 304 303 303 301 301 301 301 301 301 302 303 303 303 303 303 303 303 303 303 300 303 303 303 302 302 302 299 301 300 302 302 302 302 302 302 300 297 297 300 299 299 298 294 296 292 293
313 312 312 313 312 311 310 310 308 299 304 304 306 307 306 305 303 302 300 299 300 302 304 306 301 303 301 302 299 299 296 291 290 291 291 292 293 300 304 304 303 302 302 301 302 302 302 303 304 304 305 304 304 305 304 305 303 303 303 304 303 302 296 299 297 303 303 303 302 303 300 301 302 300 296 298 296 297 297 297 300 298 296 294 297
313 303 298 296 302 311 310 309 306 307 307 305 304 306 303 304 302 301 300 299 298 299 301 304 304 304 304 304 302 302 297 299 301 302 303 302 303 303 304 305 303 302 302 302 303 303 303 303 304 304 304 305 304 305 304 304 304 304 304 304 303 301 300 302 303 303 302 302 303 302 301 300 301 300 298 298 297 298 299 298 298 298 296 295 297
312 312 304 294 307 308 307 304 308 308 304 305 303 304 304 303 303 302 301 301 300 299 300 301 302 305 305 306 304 303 301 302 302 303 303 303 303 304 305 304 303 303 303 304 304 305 304 305 305 305 305 305 305 305 305 305 306 304 304 303 302 302 302 303 302 301 300 303 300 300 299 300 300 299 297 299 297 299 297 295 295 294 297 296 295
313 312 302 299 300 308 306 305 307 307 306 306 304 305 305 304 304 301 302 301 301 299 299 302 303 304 305 301 296 298 303 302 303 303 304 304 304 305 305 305 304 305 305 303 304 305 306 305 305 305 305 305 306 305 306 305 305 304 304 303 304 301 303 304 304 302 302 299 299 299 299 298 298 298 297 297 295 296 296 296 295 296 296 295 296
313 311 311 310 301 307 309 305 308 308 306 307 305 304 303 304 304 303 302 301 302 300 300 301 302 303 299 294 293 294 301 304 305 303 306 305 306 305 305 305 306 306 305 305 306 306 306 307 307 306 306 305 305 305 305 305 305 305 305 305 305 302 301 302 303 303 300 300 299 298 297 297 297 297 297 296 297 297 296 296 295 296 296 296 294
314 314 313 308 308 306 306 307 307 308 307 307 306 299 302 304 305 304 302 301 301 301 302 302 302 304 301 292 294 291 302 304 299 305 305 305 305 304 305 306 306 307 307 307 307 307 307 307 307 306 306 306 307 305 305 306 305 305 305 305 306 305 303 301 301 301 301 300 298 297 298 297 296 298 297 296 297 297 297 297 295 295 295 296 294
313 312 311 310 308 307 305 308 308 307 307 304 303 305 303 304 305 304 302 302 302 302 302 302 303 303 304 298 295 298 301 302 303 305 305 304 305 305 306 308 307 307 307 307 308 308 308 307 307 307 308 308 308 309 308 307 306 306 306 306 302 301 304 300 299 302 301 300 300 298 298 297 297 296 295 295 296 295 295 295 294 294 294 294 294
313 312 310 309 308 308 310 308 308 308 305 306 307 306 303 305 305 304 304 303 303 302 302 302 302 303 303 302 301 300 301 302 301 302 304 305 305 306 307 307 308 308 307 307 308 309 309 308 308 308 309 308 308 308 308 307 308 307 307 306 305 300 303 305 305 305 303 301 299 298 297 298 297 298 297 296 295 296 295 295 294 291 291 291 291
313 312 310 308 308 307 306 307 303 307 308 307 307 307 306 305 305 304 305 303 303 303 303 303 303 303 303 305 305 302 303 304 304 304 306 306 306 306 307 307 308 308 308 308 308 309 308 309 308 307 308 308 308 309 309 308 308 308 308 308 307 307 307 307 307 304 303 302 298 297 298 297 298 296 295 297 297 296 295 294 293 292 291 290 290
313 312 310 310 308 306 306 307 306 306 308 308 307 307 306 307 305 305 302 304 303 304 303 304 305 305 304 304 304 305 304 304 304 305 305 306 307 307 308 308 307 308 308 308 309 308 309 309 308 308 308 308 309 310 308 308 308 307 307 307 307 306 305 304 304 304 304 304 302 299 298 297 295 295 293 294 294 293 291 291 291 290 290 289 289
313 311 311 309 309 308 308 307 305 300 305 307 308 307 305 307 306 304 305 304 304 304 304 305 305 305 304 304 304 304 305 305 304 305 305 306 306 307 308 309 308 308 308 308 309 309 310 311 310 309 308 310 309 309 308 307 306 305 305 305 304 303 300 297 303 302 302 301 300 300 298 296 295 294 293 294 294 292 291 291 290 290 289 288 288
312 312 311 310 310 308 309 307 306 310 307 307 306 306 305 306 306 306 307 306 305 305 305 305 305 305 305 305 304 304 304 305 305 305 305 305 307 308 308 308 307 309 309 309 310 310 310 310 309 309 310 311 309 307 307 303 302 300 299 297 290 286 288 291 296 297 294 298 297 296 296 295 294 292 291 292 291 291 290 289 289 288 287 287 286
313 310 309 308 307 307 309 307 307 307 307 306 306 307 305 306 307 307 307 307 307 306 307 306 305 305 305 304 303 304 305 303 303 304 305 306 306 307 307 308 309 310 309 309 309 309 309 310 311 310 308 307 305 303 300 299 296 293 291 288 285 285 286 286 287 288 293 295 294 294 294 293 293 292 291 291 292 290 289 288 287 286 286 286 285
312 311 309 308 308 307 308 308 307 306 307 306 305 305 304 306 307 307 307 307 307 307 306 307 307 305 305 305 303 304 304 305 306 306 306 306 306 306 307 308 309 310 310 309 309 309 309 308 306 304 302 297 299 298 297 295 293 288 284 283 284 285 286 288 290 286 287 289 291 291 291 290 290 290 290 290 290 290 286 284 284 284 285 285 285
Wind_Speed
4 4 3 3 3 4 4 6 8 8 8 7 7 6 6 6 5 4 4 5 6 7 7 8 8 8 9 8 8 7 7 6 6 7 7 7 6 7 6 8 7 6 7 7 7 7 7 10 7 8 9 7 5 10 8 5 6 5 4 4 5 4 5 5 5 5 3 3 3 3 9 7 7 7 7 7 7 7 9 9 10 8 9 9 9
4 4 3 3 3 4 4 6 7 8 8 8 6 5 5 5 5 5 5 6 6 8 9 8 8 9 8 8 7 7 6 7 6 6 6 7 6 5 7 7 6 6 6 8 6 5 6 11 12 12 9 10 10 9 9 6 4 6 6 7 7 7 7 6 6 5 6 3 3 4 4 8 8 7 6 7 6 6 9 8 8 9 9 8 9
4 4 3 3 3 3 4 7 7 8 8 7 6 5 5 5 5 6 6 7 7 7 8 8 9 9 8 7 7 6 6 5 5 6 6 7 7 7 8 7 6 7 8 6 7 4 6 7 8 6 5 6 8 7 7 7 9 8 8 7 7 8 7 8 6 6 6 5 4 4 3 4 8 6 6 6 5 5 7 8 7 7 7 8 8
5 4 3 3 3 3 4 6 7 8 8 7 6 5 4 4 5 6 6 7 8 8 8 8 8 7 7 7 6 6 6 6 5 5 6 6 6 7 7 7 6 5 2 5 8 4 6 7 7 6 6 7 6 5 4 4 5 7 8 8 8 8 7 7 8 7 6 6 5 6 3 1 4 9 10 4 6 6 5 6 7 6 5 6 5
5 4 3 3 3 3 4 6 8 8 8 7 6 5 4 3 4 6 6 7 8 8 7 6 6 6 6 7 6 5 6 5 6 6 5 5 6 6 7 7 6 5 4 5 4 5 5 6 6 4 5 6 6 4 7 7 6 5 6 6 6 3 4 8 8 7 7 6 5 4 4 4 4 6 9 7 6 6 6 7 7 6 4 3 3
5 4 3 3 3 3 5 6 8 9 8 6 6 5 5 4 5 4 6 7 8 7 6 6 6 6 6 7 6 5 6 6 6 6 6 6 5 5 5 6 6 6 5 3 7 2 4 4 3 4 5 5 3 3 5 5 6 6 7 6 5 8 9 7 6 7 7 6 5 5 5 5 2 3 7 10 8 6 9 9 3 1 3 3 3
5 4 3 2 3 3 4 6 7 8 7 5 5 5 4 3 4 5 6 6 7 7 6 6 5 6 6 7 7 6 5 5 6 7 7 7 7 6 6 6 6 5 5 5 3 4 3 4 2 3 5 5 4 2 1 1 3 5 5 4 5 4 3 3 5 6 7 7 6 7 5 3 4 5 5 7 7 8 2 1 4 3 1 1 1
5 4 3 2 2 3 4 6 6 7 6 5 5 5 3 3 4 5 6 6 6 6 6 6 6 6 5 6 6 6 5 5 7 7 7 7 6 7 6 6 6 5 5 5 3 5 3 5 6 6 5 6 4 4 3 2 0 1 2 2 3 2 4 3 4 5 5 6 5 5 3 4 4 4 4 8 7 8 8 3 5 3 5 5 6
5 4 3 2 3 5 5 5 6 6 5 5 6 5 4 3 4 5 4 5 5 6 5 7 7 5 4 5 5 4 4 4 6 7 7 8 7 7 6 6 6 6 5 5 5 4 5 4 4 2 5 6 5 2 2 1 1 0 1 1 2 0 1 2 4 6 4 5 6 5 4 5 6 5 5 7 6 8 2 4 5 7 7 7 6
5 4 3 2 4 5 6 5 6 6 5 4 5 5 4 4 4 5 5 5 5 6 6 6 6 6 6 5 4 3 2 3 7 9 7 6 7 6 6 6 5 5 5 5 5 4 4 4 3 5 1 1 2 2 3 3 2 2 1 2 0 1 1 2 3 4 4 6 6 6 5 6 6 7 6 5 4 2 3 4 3 3 4 2 3
5 3 3 4 6 5 6 5 6 6 5 4 2 4 5 4 5 5 5 6 5 5 6 6 5 5 6 6 6 4 3 4 7 8 8 8 7 7 6 5 5 5 5 5 5 4 4 2 1 3 3 4 2 3 2 2 4 2 3 4 3 1 2 2 3 4 5 6 6 7 7 7 7 3 4 3 2 4 3 5 4 6 4 7 6
4 4 3 4 6 6 5 6 6 6 5 5 5 5 4 5 6 6 6 6 6 4 5 6 6 5 5 6 6 6 4 7 8 8 9 9 7 7 6 5 4 4 4 4 5 4 3 2 1 1 1 2 2 4 4 2 1 0 4 4 3 5 3 2 3 3 3 5 4 4 3 4 4 4 2 3 3 2 1 1 3 2 3 2 4
4 4 4 6 5 5 6 6 6 6 6 5 4 5 6 6 6 6 7 6 6 6 4 6 5 5 6 7 7 6 5 9 9 8 8 10 9 8 7 6 5 4 4 3 4 4 3 2 1 1 1 2 5 3 3 3 4 5 6 6 6 4 2 2 3 4 2 4 4 4 3 3 3 3 4 4 3 5 2 0 1 1 1 1 3
4 4 5 6 5 5 6 6 6 6 6 5 4 4 5 5 5 5 6 6 5 6 5 6 6 6 6 6 7 7 5 8 8 9 9 9 9 7 7 6 5 4 3 3 3 3 4 4 2 1 1 1 2 3 3 3 4 5 4 3 3 4 4 3 4 6 6 3 3 2 3 3 3 4 4 2 2 1 3 2 2 1 1 4 4
4 4 6 5 5 5 6 6 6 6 5 5 5 5 5 5 6 6 6 7 6 6 6 5 5 5 6 6 6 8 4 7 8 9 9 10 11 9 4 4 4 4 3 2 2 2 2 4 4 2 1 2 4 6 5 5 5 5 4 4 5 6 7 7 6 6 4 3 2 4 6 6 5 5 4 3 3 3 4 4 3 4 4 3 3
5 5 5 5 5 4 5 5 5 4 4 4 5 5 5 6 7 7 7 6 5 5 5 6 5 5 6 6 6 9 5 9 9 10 10 10 12 6 1 1 1 2 2 2 2 4 4 3 3 2 3 3 6 7 6 5 5 5 6 6 5 7 8 8 7 11 9 8 8 8 7 8 9 8 7 5 4 3 2 2 2 1 1 2 2
5 4 4 5 5 4 4 4 4 4 3 4 4 5 5 6 5 4 5 5 5 5 4 4 4 4 5 6 7 7 4 8 9 9 10 11 10 3 2 1 2 1 1 0 2 4 5 6 4 3 3 4 7 9 8 6 5 7 7 7 7 7 6 8 11 14 15 15 14 12 11 12 13 14 14 13 9 5 1 1 3 2 1 1 2
5 4 4 3 4 3 3 4 3 3 3 3 4 4 5 5 5 4 4 5 5 4 5 5 4 3 3 5 5 6 5 8 9 8 10 10 9 5 2 2 2 2 2 2 3 3 7 12 11 6 4 5 9 9 7 5 5 6 8 8 8 8 7 5 4 7 11 13 12 12 12 11 12 14 15 15 15 11 6 4 4 4 3 2 0
4 4 4 4 3 4 3 4 4 4 4 4 4 6 6 5 5 4 4 5 5 5 5 4 3 3 2 3 2 5 6 6 9 10 10 10 8 3 3 2 2 3 2 3 2 2 4 8 13 10 7 7 9 8 7 5 6 6 8 7 8 8 6 6 6 6 6 7 7 8 9 10 8 8 9 14 15 12 9 7 5 4 3 3 2
4 4 4 4 4 4 3 4 4 5 6 5 5 5 6 5 5 4 4 5 5 4 5 4 3 3 2 4 2 5 6 4 8 9 9 10 11 6 4 3 3 2 4 3 2 3 3 4 8 12 12 10 8 8 7 10 4 8 6 6 7 8 6 6 6 6 7 8 8 8 8 6 6 7 8 9 10 11 10 8 6 5 4 4 5
5 4 4 4 5 5 4 3 4 4 5 5 5 5 4 5 5 4 4 4 5 5 5 4 4 3 2 3 3 4 4 6 6 8 9 8 9 8 3 4 4 2 2 2 3 3 4 5 6 9 10 9 8 8 9 11 8 5 5 6 7 9 8 8 8 8 7 6 6 7 6 7 7 7 8 8 8 8 8 8 8 8 7 6 5
4 4 5 5 5 4 3 4 4 4 5 5 5 5 4 4 5 6 5 4 5 6 5 4 3 2 2 3 3 2 5 7 5 7 8 8 8 10 4 4 6 2 2 3 4 5 6 6 6 7 9 10 9 10 11 11 11 8 10 13 12 10 8 8 6 5 5 6 6 7 7 7 7 7 7 8 8 8 8 8 9 9 8 7 6
5 5 5 5 4 4 4 4 4 4 4 4 4 5 6 6 6 6 6 6 6 5 4 3 4 3 2 3 1 3 3 4 7 5 6 8 9 8 10 6 8 3 4 4 5 5 6 6 6 8 9 10 11 11 10 12 12 9 10 9 8 9 8 6 7 6 6 6 7 7 7 6 6 6 6 7 7 7 7 7 8 9 9 8 7
5 5 5 5 5 5 5 4 4 5 5 4 5 6 6 6 6 6 5 5 5 4 2 3 4 3 3 1 1 3 2 2 6 7 5 8 8 8 9 9 12 6 5 5 6 6 6 7 6 6 10 11 13 14 15 13 9 9 8 6 3 4 6 6 6 7 7 7 6 6 6 6 6 6 6 6 6 6 6 7 8 8 8 7 7
5 5 6 6 5 5 5 4 4 4 4 4 5 5 6 5 5 4 4 4 4 3 3 3 3 3 2 1 2 2 2 3 4 5 6 7 7 8 10 11 11 9 6 8 8 7 7 5 5 6 6 8 10 11 11 11 12 10 9 5 1 6 5 6 6 6 7 7 6 7 6 6 6 6 6 6 5 5 6 5 6 7 7 8 8
6 6 5 5 5 5 5 5 5 4 4 4 4 4 4 4 4 2 3 3 3 3 4 2 2 2 0 2 3 2 2 3 5 5 6 6 6 8 11 11 12 13 11 9 9 7 5 5 4 4 5 5 6 7 8 8 10 10 8 7 7 6 6 7 7 7 7 7 7 7 6 6 6 5 4 4 4 5 4 5 5 5 5 5 6
7 6 6 5 5 5 5 5 4 4 5 4 4 3 3 3 3 3 3 2 3 3 2 1 3 2 2 3 3 3 3 4 4 5 6 5 6 7 7 8 10 11 8 6 7 6 6 5 8 9 10 10 8 6 7 7 7 6 6 7 7 7 7 7 7 8 7 7 7 7 6 6 5 5 5 5 5 5 4 4 5 5 5 5 5
8 7 7 6 5 5 6 3 2 5 4 3 4 3 3 2 4 3 2 2 3 2 1 2 2 3 3 4 4 5 6 5 6 6 6 6 6 5 4 5 4 3 5 6 6 7 6 6 7 6 6 6 5 6 7 8 8 8 8 8 8 9 9 9 9 8 8 7 7 7 7 6 7 7 6 6 7 6 6 6 5 5 4 4 5
9 8 7 7 7 6 5 5 5 5 4 3 2 2 3 3 3 2 3 6 7 5 3 2 3 3 3 5 4 5 5 5 4 7 5 7 6 3 4 5 4 4 6 3 6 4 4 4 6 6 7 7 7 7 7 8 8 8 8 7 7 7 6 7 8 8 7 7 7 8 8 7 8 7 7 7 6 6 5 6 5 5 5 6 6
10 9 8 7 7 6 6 6 5 5 5 4 3 3 6 5 4 4 2 7 6 4 3 4 5 4 2 3 6 4 3 5 6 6 6 7 7 8 11 12 10 7 4 5 8 4 4 5 5 6 6 6 7 7 7 7 8 8 8 8 8 8 8 8 8 8 8 8 7 7 7 7 7 7 7 7 7 7 6 6 6 5 5 6 6
9 9 9 8 7 7 6 6 6 6 5 4 4 3 4 6 4 5 6 4 5 5 5 6 7 8 8 2 6 7 7 7 6 4 3 3 5 6 7 8 7 6 5 4 3 5 6 6 6 6 6 7 7 8 7 8 8 8 8 8 8 8 8 8 7 7 7 7 7 7 7 6 6 6 6 6 6 6 6 6 6 6 6 6 5
9 9 8 8 8 9 7 6 6 6 6 5 4 4 4 4 5 3 3 4 4 3 3 5 5 6 7 7 3 4 5 4 5 5 5 5 4 6 6 6 5 2 5 9 2 3 5 5 6 6 6 7 7 7 7 7 7 7 7 7 7 7 7 7 7 7 7 7 7 7 6 6 6 6 6 6 5 6 6 5 5 5 6 6 5
10 9 8 8 8 9 9 7 7 7 7 6 5 5 4 3 4 6 4 4 3 2 2 3 4 4 5 6 5 6 5 6 6 6 6 7 7 7 7 4 1 5 9 5 4 4 5 5 5 6 5 6 6 6 6 6 6 7 7 7 7 7 7 6 6 7 7 7 7 7 7 7 6 6 6 4 5 6 5 5 5 5 5 5 5
13 11 11 10 9 8 9 8 8 7 7 7 6 5 5 4 3 3 6 6 4 3 5 4 3 4 4 3 4 3 4 5 6 7 7 7 8 8 7 4 1 7 6 4 3 4 4 5 5 5 5 5 6 6 6 6 7 7 7 7 8 8 7 7 7 7 7 6 6 6 6 5 5 5 6 6 6 6 6 5 6 5 6 6 5
13 14 13 10 9 9 8 8 8 8 7 7 7 6 5 4 3 4 5 6 7 8 8 7 5 6 3 3 4 1 1 4 6 8 8 7 8 8 7 6 4 4 6 5 3 3 4 4 5 5 6 6 6 6 7 7 7 7 7 8 7 7 7 6 6 6 6 6 6 6 6 6 6 5 4 5 6 6 6 7 7 6 6 5 6
13 12 11 12 11 9 8 8 8 8 8 8 7 6 4 4 5 5 4 3 6 7 8 8 8 9 6 4 5 3 2 3 5 7 9 9 9 9 7 6 5 5 4 4 4 4 4 5 6 6 6 7 7 7 7 7 7 7 7 7 7 7 7 6 6 6 6 6 6 6 6 6 5 5 6 5 6 6 6 7 7 7 6 5 6
11 11 11 11 12 11 9 9 8 8 8 7 7 7 7 6 6 5 5 6 6 7 7 8 8 7 5 5 6 3 2 1 4 4 5 7 8 8 7 3 4 4 5 5 5 5 6 6 6 6 7 7 7 7 7 7 7 7 6 6 6 6 6 6 6 5 6 6 5 5 5 5 5 5 5 4 3 5 4 4 5 5 5 2 3
10 10 11 11 11 11 10 10 9 8 8 9 8 7 7 7 7 7 6 6 7 7 7 8 9 9 10 8 11 7 6 4 6 5 4 3 5 8 8 4 4 5 5 5 6 6 7 7 6 7 6 6 7 6 6 7 6 6 6 6 5 6 7 6 4 4 5 5 5 5 3 3 4 5 3 2 2 2 3 4 4 2 2 2 4
9 9 1 8 5 9 10 10 9 10 10 9 9 9 8 8 8 8 8 7 8 8 8 8 9 9 9 9 9 8 9 7 7 8 8 8 9 9 8 5 5 6 6 7 7 7 7 7 7 6 6 6 6 6 6 6 6 6 5 5 6 7 6 5 5 5 4 4 4 4 2 2 2 2 1 2 1 1 2 2 3 3 3 2 4
7 6 8 12 9 11 11 9 10 10 10 10 10 10 9 9 9 9 9 8 8 9 9 8 9 9 9 10 10 10 9 9 9 8 8 9 9 9 7 6 6 6 7 8 7 7 8 7 7 7 6 6 6 6 6 6 6 6 5 5 6 6 5 5 5 3 3 4 2 2 2 1 1 1 1 0 1 1 1 0 1 1 2 4 2
8 8 7 11 13 12 12 9 10 10 10 11 11 11 10 10 10 10 9 9 9 9 9 9 9 9 9 8 12 12 10 9 8 8 8 8 8 8 7 7 7 7 8 8 8 7 7 7 7 7 7 7 6 6 6 6 6 6 6 5 5 5 5 4 4 3 3 2 2 2 2 2 1 1 2 1 2 0 0 0 1 0 0 0 2
7 7 8 9 9 12 11 12 11 11 11 11 11 11 11 11 10 10 10 10 10 10 9 9 9 9 10 15 15 14 10 8 8 8 8 8 8 8 8 7 8 7 8 8 8 8 8 8 8 7 7 7 7 7 6 6 6 6 6 6 5 5 3 3 4 4 3 3 3 2 2 2 2 1 0 1 1 1 1 1 1 1 1 2 2
7 6 7 7 8 11 12 11 12 11 11 11 11 11 11 11 11 10 10 10 10 10 10 10 10 10 9 14 15 15 11 9 8 8 8 8 8 8 8 8 8 8 8 8 8 9 8 8 8 7 7 7 7 7 7 7 6 6 6 6 5 6 5 4 3 3 3 3 3 3 3 3 3 3 3 3 3 2 2 2 2 2 1 3 2
7 8 8 8 8 9 10 10 11 12 12 12 11 11 12 12 11 11 11 11 11 11 10 10 10 11 8 10 10 11 11 10 9 9 9 8 8 8 9 9 9 9 9 9 10 10 9 9 8 8 7 7 7 7 7 7 7 7 6 6 4 4 5 4 3 5 3 3 3 3 4 4 3 3 3 3 3 3 3 2 2 2 2 2 2
8 8 8 8 8 6 4 7 10 11 12 11 11 11 11 12 12 12 12 11 12 11 11 11 10 11 9 10 11 11 11 11 10 10 9 9 9 9 9 9 10 10 10 10 10 10 10 9 8 9 9 8 8 8 8 7 7 7 6 6 6 5 6 5 4 3 3 3 3 3 3 4 4 3 3 3 3 3 3 2 2 1 2 2 2
7 7 7 7 5 6 9 9 11 11 11 12 12 12 12 12 13 13 12 12 12 12 12 12 12 11 12 10 11 12 12 12 11 11 10 10 10 10 10 10 10 11 11 11 11 11 10 9 9 9 9 9 8 8 8 7 7 6 5 5 5 4 4 4 4 4 4 5 3 3 3 3 3 3 1 2 3 2 1 0 0 2 2 2 3
7 7 8 9 9 10 10 10 12 13 12 12 12 13 12 12 12 12 12 13 12 12 12 12 12 12 12 13 11 11 12 13 12 11 11 11 11 11 11 11 11 11 11 12 12 12 11 10 10 9 9 9 8 8 8 7 7 6 6 5 3 4 4 4 5 5 4 4 3 2 2 3 3 2 1 2 1 2 1 2 2 1 2 2 3
8 8 8 8 9 8 9 9 10 10 11 11 12 13 12 12 12 12 12 12 12 13 12 12 12 12 12 12 12 12 11 12 12 12 11 11 11 11 11 11 11 11 11 11 10 10 9 9 9 9 8 8 8 8 7 7 6 6 5 5 5 4 6 6 6 5 5 4 4 4 4 3 2 3 3 3 3 1 1 1 1 2 2 2 3
8 9 8 8 8 8 7 5 3 4 8 11 11 12 12 12 12 12 12 13 12 13 13 13 12 12 12 12 12 12 12 12 12 12 12 12 11 11 11 10 10 10 10 10 9 9 8 8 8 8 8 7 7 7 6 6 6 5 5 4 6 9 6 3 5 6 8 6 5 5 4 4 4 2 2 3 1 1 1 0 1 2 2 3 3
8 8 9 8 7 7 6 6 7 9 9 9 10 9 10 12 12 12 12 13 13 13 13 13 13 13 13 13 13 13 13 13 13 13 12 12 12 11 10 9 9 9 9 9 8 8 8 7 7 6 6 6 6 6 6 5 5 6 5 6 8 8 9 10 9 6 7 6 6 5 4 4 5 4 3 3 3 2 1 1 1 2 3 3 4
8 8 7 7 8 8 8 9 9 8 7 6 7 7 9 11 12 12 12 13 13 13 13 12 12 12 13 13 13 13 13 13 12 12 12 12 12 11 10 9 8 8 8 7 7 7 7 6 6 6 6 4 6 6 6 6 6 6 9 10 8 8 8 8 7 7 9 7 6 5 3 3 3 2 2 1 1 1 1 1 1 3 3 4 3
Wind_Direction
239 257 273 281 291 309 327 333 329 332 329 316 329 327 333 322 330 344 339 348 345 339 336 340 335 334 328 325 326 328 335 333 332 324 323 332 342 326 295 271 255 255 260 255 245 234 235 242 216 214 215 226 233 226 226 215 216 214 202 233 199 184 202 207 229 251 252 198 264 275 306 271 201 208 207 202 173 198 219 213 201 197 205 218 193
228 247 255 273 287 312 323 328 326 329 325 313 330 321 328 320 336 339 334 346 336 333 325 326 324 324 326 313 311 323 334 338 337 325 324 331 339 324 317 316 297 269 267 274 262 244 238 244 220 214 210 214 219 226 220 207 230 212 205 215 219 212 206 211 213 226 248 199 239 301 308 301 298 210 217 201 206 192 194 209 207 206 208 209 220
225 235 254 272 295 306 317 326 325 322 321 312 315 313 310 327 326 330 342 336 335 331 325 322 323 325 322 318 316 326 332 337 339 329 333 338 341 333 327 329 313 301 285 292 273 237 239 246 246 217 208 240 227 230 235 217 216 221 220 209 215 211 203 210 203 213 232 231 206 253 264 282 265 267 200 203 214 209 202 201 210 206 209 210 216
218 231 247 266 290 302 315 328 319 318 317 310 309 312 323 320 329 335 335 332 329 327 328 331 334 334 327 317 319 329 334 334 334 337 342 344 338 332 326 319 324 307 256 248 260 231 240 255 243 219 214 217 228 212 211 205 223 224 217 213 211 209 211 205 213 211 212 234 205 211 229 167 285 268 259 217 201 211 239 202 206 211 211 209 206
217 231 239 268 288 306 322 324 319 319 314 306 307 302 295 306 326 328 335 325 331 329 329 338 342 335 332 324 326 326 323 325 335 339 336 338 330 331 321 319 321 310 328 307 292 274 245 236 241 234 229 238 234 232 234 206 210 218 243 225 202 206 221 214 212 216 226 233 229 210 210 218 223 280 280 234 215 223 245 218 195 210 189 214 238
215 228 243 260 294 311 323 320 320 319 314 301 298 288 274 292 315 316 327 337 346 338 333 340 351 337 338 340 324 321 330 337 344 345 337 327 323 323 326 320 319 320 331 328 285 290 263 245 249 202 225 243 259 242 251 228 226 225 222 230 231 202 213 201 204 213 224 232 242 228 215 218 283 278 283 276 252 160 225 224 156 90 156 189 200
211 224 233 267 289 317 322 321 321 321 314 299 292 282 276 307 322 332 335 342 352 345 345 333 339 330 347 345 335 330 332 351 358 347 339 334 325 321 319 318 313 317 313 304 307 294 262 272 235 215 219 223 230 234 241 285 249 245 233 243 239 237 223 195 200 210 215 227 235 241 227 235 220 241 257 278 259 255 232 243 189 165 302 202 233
217 222 234 259 287 308 319 322 321 323 319 296 290 284 291 310 335 336 340 348 343 340 354 342 331 332 350 349 346 348 340 6 3 348 335 330 326 320 311 307 312 315 312 296 294 259 246 210 231 219 212 219 195 182 161 156 64 336 341 298 275 243 219 187 215 220 211 216 230 224 226 226 221 228 226 244 264 260 243 159 218 151 252 242 234
212 225 226 255 304 317 311 323 320 323 316 317 313 309 295 314 335 328 323 354 329 330 340 348 333 322 330 355 347 358 358 16 3 346 333 328 329 321 312 300 300 303 303 302 290 277 257 240 237 317 48 25 46 2 104 79 183 150 350 312 311 249 284 233 222 218 223 226 231 230 224 222 222 212 213 233 229 251 337 278 260 183 211 206 200
220 222 244 255 292 302 310 310 317 323 305 312 327 304 296 320 319 313 331 341 349 324 325 345 349 336 333 344 349 351 15 34 5 338 322 316 317 309 305 294 292 294 300 292 292 291 284 289 83 50 68 215 162 181 142 181 254 304 328 212 216 338 142 266 263 235 209 221 228 232 215 223 225 208 227 235 252 281 234 242 252 251 221 114 279
213 233 255 270 302 299 296 310 315 311 322 302 293 293 297 295 290 309 328 323 328 323 310 321 346 340 333 333 346 350 350 39 360 333 319 309 301 299 302 299 292 283 281 283 291 293 292 273 266 144 163 190 185 168 210 292 281 293 45 37 15 300 281 269 269 262 243 225 225 231 224 225 229 215 236 254 269 251 245 246 225 238 240 222 192
231 234 247 270 284 287 297 302 306 313 305 301 306 305 294 294 304 314 316 315 311 321 312 315 326 336 330 329 339 351 27 57 2 343 324 317 304 300 294 288 290 287 287 289 286 294 318 288 278 267 315 19 291 172 147 112 288 195 93 68 65 45 40 278 281 269 235 225 217 201 207 216 240 220 202 214 224 205 186 255 266 262 264 307 51
232 250 257 283 282 284 290 296 305 305 302 298 301 293 303 307 299 304 312 317 311 309 333 305 312 330 325 329 332 347 4 44 357 342 327 313 306 296 279 268 275 280 309 305 307 315 314 304 260 201 89 354 256 218 200 138 91 104 102 94 72 72 31 336 306 290 283 246 244 247 246 271 220 89 38 5 356 261 213 315 331 351 349 93 51
243 260 262 271 274 279 290 298 302 302 300 291 286 290 288 282 287 292 297 298 301 309 314 303 300 317 322 324 330 338 358 36 350 343 327 317 303 298 270 253 257 277 295 318 317 326 329 333 352 66 78 226 259 256 215 165 143 136 150 166 143 109 83 53 332 301 307 282 201 239 73 13 49 72 62 8 293 17 39 82 45 3 16 47 73
250 251 267 271 270 275 288 302 307 309 303 294 289 282 288 294 289 290 290 295 294 301 302 295 303 314 318 328 331 332 67 34 8 343 333 319 314 296 272 261 252 243 271 292 312 0 356 338 330 23 79 61 36 339 262 183 163 164 151 90 61 43 31 12 3 356 293 250 117 80 68 52 55 61 58 58 52 46 32 44 42 49 64 103 113
260 251 257 256 258 272 287 304 307 302 297 296 287 282 282 287 291 291 288 280 279 282 290 293 304 316 321 325 330 335 75 43 14 347 335 324 312 291 351 251 255 274 297 313 340 27 9 349 330 12 53 58 30 344 312 299 185 153 130 104 83 67 55 37 41 67 56 53 60 68 66 66 61 58 39 26 44 53 97 90 82 87 104 87 93
265 246 242 260 273 280 293 303 310 309 304 298 294 297 295 289 293 299 289 280 285 289 277 293 307 306 318 326 337 332 358 57 19 348 336 334 317 331 26 355 100 159 98 234 96 54 26 2 344 10 26 41 7 336 323 309 156 133 127 114 94 79 72 62 58 68 75 78 82 89 89 77 65 52 42 36 27 350 358 24 49 11 38 166 123
249 236 244 256 263 252 275 292 293 297 295 284 290 290 288 285 290 295 290 297 289 279 290 296 289 296 316 330 351 327 334 73 21 358 336 333 312 318 27 17 24 105 136 118 109 83 58 42 20 14 9 29 351 325 317 294 125 128 121 121 111 105 105 98 89 81 85 82 77 70 64 62 59 55 45 39 32 23 25 56 24 346 352 325 222
246 237 241 254 265 267 267 281 284 280 278 290 285 287 287 286 293 287 273 276 279 270 269 279 288 293 345 336 19 309 336 74 40 3 340 336 322 325 70 54 21 42 61 97 82 85 94 69 48 23 8 355 334 326 328 307 132 133 132 125 120 118 122 123 105 89 77 71 63 64 56 54 53 52 48 45 41 41 40 30 2 349 346 4 19
250 241 242 260 253 257 249 254 270 278 286 294 296 301 300 288 285 285 276 279 280 285 277 282 300 315 348 306 344 332 341 5 58 2 351 337 335 330 82 87 78 52 2 19 89 77 64 75 60 21 4 1 351 347 3 7 102 125 136 131 124 115 115 100 93 97 86 83 79 71 68 57 55 61 53 48 47 45 45 39 32 14 355 50 41
240 238 253 245 242 242 259 283 287 281 278 285 296 299 292 293 287 280 276 263 270 278 287 297 292 291 309 320 324 349 23 334 72 31 352 342 347 335 100 89 105 106 99 65 50 55 51 49 52 26 6 12 12 15 30 34 24 98 103 115 108 115 120 107 103 96 90 82 78 74 72 63 56 54 54 53 50 46 50 46 48 46 48 61 77
234 238 239 247 244 236 237 262 276 276 285 291 298 307 312 295 279 271 268 286 280 267 268 272 272 290 315 297 334 14 79 34 348 60 8 350 4 0 2 40 358 46 83 89 83 73 53 41 43 14 14 29 34 44 53 56 59 76 83 99 115 133 122 115 116 103 89 84 80 73 66 63 62 60 59 58 54 52 53 57 52 54 57 59 62
232 237 243 253 246 238 233 249 257 269 272 276 287 293 304 298 284 268 262 261 260 266 263 258 268 258 290 303 12 60 53 75 19 13 37 2 19 25 13 11 317 297 82 74 65 75 76 75 65 40 47 45 44 44 58 84 84 83 93 102 118 141 144 111 111 102 88 77 73 73 69 68 68 65 66 66 60 58 61 60 66 68 70 69 68
234 240 243 246 245 229 233 244 251 257 255 275 288 293 304 305 287 264 250 253 254 250 241 237 255 262 281 290 61 76 76 71 72 27 20 19 30 36 36 33 18 26 38 61 59 65 82 80 72 59 66 64 62 59 51 52 73 74 76 91 170 208 107 110 95 91 94 89 80 76 71 66 73 74 71 74 73 71 70 69 71 72 76 81 79
218 235 239 237 230 233 240 252 258 254 268 266 284 303 313 304 278 246 233 231 247 244 236 226 257 308 281 182 104 104 103 106 99 83 67 51 46 49 54 48 27 14 71 64 67 68 69 75 70 57 61 69 72 73 68 61 62 56 45 13 97 96 83 87 93 93 90 87 86 83 81 74 75 80 87 93 101 99 94 92 87 85 87 85 77
215 222 230 229 225 227 237 243 246 251 261 272 280 296 312 295 279 245 224 227 228 226 234 258 303 274 216 114 130 112 130 139 133 124 137 104 79 71 79 75 70 63 70 82 83 95 88 98 109 115 81 74 80 77 83 83 75 70 57 60 79 87 95 95 94 93 90 90 88 88 90 96 93 96 107 105 89 77 78 87 94 99 104 94 85
211 216 219 221 218 224 237 246 237 213 233 259 278 298 313 284 265 252 238 226 228 239 239 273 235 197 146 133 144 145 140 146 136 145 143 139 130 131 117 111 131 139 127 137 145 102 101 100 91 90 100 93 105 128 134 152 130 112 87 77 80 89 101 101 100 99 98 96 97 98 101 104 119 120 95 84 75 66 62 74 79 79 79 76 74
213 215 215 219 225 208 227 131 276 259 231 242 280 304 319 288 271 258 272 234 235 196 244 237 203 143 161 152 148 165 156 152 156 149 147 153 160 151 151 159 168 100 104 109 104 118 123 155 162 153 145 154 144 109 94 89 89 92 89 89 87 83 85 85 89 90 91 93 95 99 98 98 94 90 89 82 77 74 65 64 66 68 64 80 76
213 220 218 216 220 217 229 228 229 239 234 230 254 323 336 318 307 268 68 2 2 348 341 213 154 165 166 160 159 158 166 149 106 22 8 10 11 345 137 126 104 93 58 73 133 144 140 119 106 109 103 103 109 106 102 96 93 98 108 114 116 113 109 100 95 95 100 106 102 100 101 98 94 92 88 82 74 73 71 75 61 69 69 63 63
210 216 219 219 217 213 222 226 226 230 239 242 220 139 64 31 10 336 53 49 48 41 3 347 345 340 165 72 21 357 49 73 66 48 19 11 31 30 52 53 50 78 112 282 288 126 119 117 120 116 116 111 105 107 106 107 104 98 91 88 92 93 96 97 96 98 99 101 104 101 99 100 96 93 91 90 89 79 66 59 68 61 66 67 67
211 214 215 221 214 219 217 225 217 226 228 238 251 236 174 132 116 74 58 42 1 356 346 324 336 4 355 93 90 67 60 71 73 75 86 73 82 82 89 97 110 137 220 255 187 115 115 108 104 100 101 103 102 102 107 106 105 103 100 97 95 97 98 97 99 102 100 95 94 96 96 94 95 95 96 97 98 96 96 88 79 70 64 64 67
212 216 215 216 200 209 226 218 222 222 225 226 237 249 246 177 144 103 94 80 43 352 338 335 346 353 360 8 22 127 97 85 110 119 113 114 108 103 108 120 129 238 258 278 235 118 114 111 109 108 107 108 107 109 108 111 113 112 113 110 104 102 101 101 106 109 107 103 99 98 96 94 93 90 86 84 87 89 86 84 81 80 82 73 64
209 223 223 214 206 201 216 219 218 216 220 220 229 236 245 245 189 153 148 147 157 145 310 310 323 333 348 360 19 13 81 120 131 132 138 133 129 119 102 87 20 295 294 266 131 133 113 115 115 120 125 122 123 119 116 113 115 115 114 114 111 105 97 98 101 96 98 100 108 104 103 102 102 105 102 97 87 80 77 79 76 73 68 76 78
189 211 224 214 211 203 206 214 216 217 218 219 224 221 230 243 257 181 160 159 164 188 187 217 252 296 263 324 6 26 95 138 150 140 144 146 141 143 147 136 335 274 279 289 136 136 136 126 131 127 120 117 119 123 123 118 115 115 114 113 111 113 117 122 113 109 114 116 109 110 110 107 105 99 94 89 85 84 79 68 61 60 60 54 51
202 208 212 218 213 209 208 209 212 215 215 217 213 222 226 226 231 225 206 176 182 180 185 182 182 226 246 200 187 183 157 155 165 163 158 158 164 168 165 159 172 208 222 227 148 147 137 143 134 130 128 128 126 125 120 124 122 120 121 122 126 130 131 123 116 118 111 105 103 97 93 98 91 86 90 89 88 83 74 68 59 47 49 53 46
210 211 198 197 213 218 212 210 210 210 213 212 217 220 220 210 212 213 216 202 189 183 184 183 182 170 205 351 117 144 126 197 189 181 176 175 183 184 198 185 177 184 185 161 159 139 148 141 139 136 133 128 129 128 128 127 130 128 129 131 132 131 123 122 124 117 107 99 97 108 111 99 100 99 95 97 93 85 83 76 66 52 39 46 38
215 213 212 202 206 215 216 211 207 210 209 214 212 216 216 214 211 214 210 204 202 196 189 174 165 143 184 186 142 98 91 121 176 199 200 199 209 217 238 208 183 168 178 169 154 155 150 148 147 141 138 139 133 131 135 132 129 126 131 131 125 130 128 122 116 126 123 124 129 119 108 103 100 92 92 85 78 80 89 111 107 92 63 11 329
215 209 216 211 204 205 209 208 202 185 200 208 218 219 214 210 207 213 210 208 201 204 200 180 176 187 188 186 160 182 141 118 123 134 163 187 222 230 246 218 183 174 173 159 160 162 155 149 152 149 147 144 142 139 136 136 137 140 142 137 126 85 75 95 109 128 124 128 124 120 113 111 102 100 96 88 83 87 73 46 44 94 119 145 37
220 214 332 12 249 216 207 209 198 193 199 204 214 218 219 214 210 210 209 205 199 209 213 193 189 197 192 174 170 160 147 181 192 196 189 199 206 219 232 197 187 177 167 160 163 170 154 158 152 155 154 151 148 148 144 144 146 145 145 141 129 133 159 157 148 146 151 133 135 129 131 125 121 104 104 118 126 107 96 75 45 22 39 20 30
209 188 179 187 217 233 231 215 202 194 198 202 209 214 213 216 215 213 211 209 202 204 208 208 197 202 195 179 176 177 195 198 202 200 192 196 200 210 218 199 192 176 174 166 174 172 161 160 161 160 161 155 158 157 157 152 157 153 160 157 153 157 176 176 160 156 154 148 147 141 147 144 142 140 163 142 115 87 60 25 62 327 5 353 7
220 212 196 196 210 216 218 218 208 202 200 201 209 210 216 214 217 217 213 212 208 204 209 211 208 201 201 176 162 180 198 201 202 207 198 202 198 202 205 198 194 182 179 175 177 179 175 167 170 167 169 169 169 169 171 168 165 169 173 168 177 168 177 172 163 163 159 159 180 170 171 164 175 190 213 152 104 290 206 224 247 270 293 270 318
212 208 206 197 196 214 218 211 212 205 206 203 206 211 211 214 218 217 217 213 212 211 209 210 212 211 165 145 160 183 208 212 205 207 203 200 204 200 203 200 195 190 189 184 184 182 185 184 176 181 178 177 180 179 180 181 181 178 177 177 176 175 188 173 178 173 185 183 191 195 205 199 216 221 237 114 212 210 228 242 288 294 296 320 321
225 219 212 193 189 202 214 216 212 209 205 205 205 206 212 217 216 217 218 218 217 212 216 213 210 214 171 158 167 178 211 224 228 218 208 200 204 204 201 205 200 196 198 195 191 192 190 194 190 189 188 187 186 187 191 188 190 191 187 185 188 183 190 195 184 189 197 208 212 199 206 212 213 223 205 204 226 231 238 232 238 265 286 295 309
228 218 214 212 210 210 215 220 214 211 209 201 200 203 205 210 216 217 217 214 219 220 220 220 217 214 181 159 165 184 211 222 224 221 215 211 205 207 210 209 209 203 202 205 200 198 199 198 200 199 193 194 194 194 200 198 195 201 202 196 198 201 204 199 206 201 197 208 212 200 202 216 220 224 207 199 216 218 238 235 250 267 297 310 319
229 224 222 215 201 188 206 249 241 220 206 195 199 203 200 209 214 215 216 218 216 220 224 225 223 225 202 165 178 192 207 215 221 224 217 214 215 215 220 217 212 212 209 205 207 205 207 208 206 208 203 206 201 199 203 208 206 207 209 211 207 196 213 213 204 191 187 201 217 206 204 200 202 217 209 192 207 219 241 222 210 201 259 275 295
236 230 222 216 195 185 184 204 236 236 214 206 205 206 204 208 214 216 216 219 219 218 221 223 227 226 228 210 194 198 208 216 217 218 222 220 218 218 221 223 221 214 213 214 211 211 212 215 213 214 213 216 209 199 204 204 203 214 217 218 228 215 180 164 154 166 175 191 213 217 210 191 201 209 114 202 195 204 212 124 247 236 282 287 288
240 236 228 223 219 212 211 211 214 220 221 217 213 211 209 207 209 212 215 218 219 219 222 224 223 224 224 228 222 209 209 214 220 219 219 223 225 224 222 223 223 220 216 215 217 214 211 216 221 221 222 221 203 196 201 192 196 194 196 202 179 149 158 157 154 163 161 165 193 209 207 198 181 159 137 204 181 159 189 232 236 246 266 281 299
243 239 234 228 222 222 215 212 219 218 227 223 214 211 210 209 205 207 212 211 215 221 223 226 228 227 226 226 226 225 218 216 217 222 223 221 223 226 227 225 222 221 221 218 215 213 212 210 215 218 218 204 192 193 196 190 184 174 172 171 172 149 120 134 148 145 141 139 141 141 147 158 163 158 152 173 207 164 205 228 231 262 275 282 284
245 244 244 230 226 223 215 202 225 287 241 232 222 215 214 211 212 208 209 213 213 214 219 223 227 228 228 225 224 224 223 223 224 221 223 225 225 225 223 224 222 221 219 213 205 202 202 206 204 208 202 190 189 183 171 160 147 147 134 113 85 90 99 113 136 117 119 130 128 130 134 141 139 141 146 163 155 188 198 233 271 284 284 275 269
249 241 238 232 222 214 205 209 201 200 220 240 235 227 221 217 217 217 214 214 217 217 218 220 223 224 224 224 222 223 224 223 222 224 223 223 223 223 223 216 214 214 216 210 203 187 188 180 174 173 164 159 150 148 145 142 132 117 109 99 103 98 91 84 78 107 131 124 127 134 136 142 146 164 172 173 173 178 209 224 233 269 273 269 264
254 248 236 222 226 222 211 206 210 218 222 228 223 218 234 233 227 223 220 218 220 220 220 220 221 222 224 224 223 222 222 225 224 222 223 223 223 222 220 213 202 201 206 201 186 170 162 153 149 142 137 131 132 128 126 122 114 94 95 103 100 101 104 106 103 70 81 104 113 118 129 133 155 160 180 181 197 192 106 13 271 268 275 276 279